Terminal Aerodrome Forecast
Issued by NWS Dallas/Fort Worth, TX

Home | Current Version | Previous Version | Text Only | Print | Product List | Glossary On
Versions: 1 2 3 4 5 6 7 8 9 10 11 12 13 14 15 16 17 18 19 20 21 22 23 24 25
000
FTUS44 KFWD 290200 AAA
TAFDFW
TAF AMD
KDFW 290300Z 2903/3006 15010KT P6SM SCT060
      TEMPO 2906/2909 33015KT -RA
     FM291200 18007KT P6SM BKN100
     FM292200 17010KT P6SM VCTS BKN060CB
     FM300300 16010KT P6SM BKN060=

USA.gov is the U.S. government's official web portal to all federal, state and local government web resources and services.